Regional Weather Roundup
Issued by NWS

Home | Current Version | Previous Version | Text Only | Print | Product List | Glossary On
Versions: 1 2 3 4 5 6 7 8 9 10 11 12 13 14 15 16 17 18 19 20 21 22 23 24 25 26 27 28 29 30 31 32 33 34 35 36 37 38 39 40 41 42 43 44 45 46 47 48 49 50
000
ASUS45 KPSR 271310
RWRAZ

ARIZONA REGIONAL HOURLY WEATHER ROUNDUP
NATIONAL WEATHER SERVICE PHOENIX AZ
600 AM MST TUE JAN 27 2015

NOTE: FAIR INDICATES FEW OR NO CLOUDS BELOW 12,000 FEET WITH NO
SIGNIFICANT WEATHER AND/OR OBSTRUCTIONS TO VISIBILITY.

AZZ001>003-036-271400-
NORTHWEST ARIZONA

CITY           SKY/WX    TMP DP  RH WIND       PRES   REMARKS
BULLHEAD CITY  CLOUDY    55  54  94 N3        30.24R
KINGMAN        CLOUDY    46  43  89 SE9       30.23R
$$

AZZ004>008-015-016-018-271400-
NORTH CENTRAL ARIZONA

CITY           SKY/WX    TMP DP  RH WIND       PRES   REMARKS
GRAND CANYON   LGT RAIN  39  36  89 SE3       30.29S
PRESCOTT       LGT RAIN  44  41  89 CALM      30.27R
FLAGSTAFF      LGT RAIN  38  36  92 W5        30.31S WCI  34
PAYSON         MOCLDY    48  32  53 CALM      30.31S
$$

AZZ009>014-017-271400-
NORTHEAST ARIZONA

CITY           SKY/WX    TMP DP  RH WIND       PRES   REMARKS
WINSLOW        CLEAR     37  31  78 E5        30.29S WCI  33
SAINT JOHNS    PTCLDY    34  33  96 W5        30.31R WCI  30
WINDOW ROCK    CLOUDY    30  25  81 CALM      30.36R
SHOW LOW       CLEAR     32  27  80 S3        30.35R
$$

AZZ023-271400-
GREATER PHOENIX AREA

CITY           SKY/WX    TMP DP  RH WIND       PRES   REMARKS
PHOENIX        PTCLDY    53  50  89 SW5       30.18S
BUCKEYE          N/A     52  52 100 CALM      30.20R
GLENDALE       PTCLDY    55  55 100 CALM      30.19
LUKE AFB       NOT AVBL
DEER VALLEY    MOCLDY    54  50  86 NE6       30.18F
SCOTTSDALE     PTCLDY    54  49  83 CALM      30.19F
MESA-FALCON    MOCLDY   N/A N/A N/A N12       30.17
MESA-GATEWAY   MOCLDY    50  48  93 E6        30.20S
$$

AZZ027-028-271400-
SOUTHWEST MARICOPA COUNTY AND PINAL COUNTY

CITY           SKY/WX    TMP DP  RH WIND       PRES   REMARKS
CASA GRANDE    PTCLDY    52  45  76 CALM      30.19S
GILA BEND      PTSUNNY   51  49  95 SE3       30.18R
$$

AZZ503-504-507>509-271400-
SOUTHEAST ARIZONA

CITY           SKY/WX    TMP DP  RH WIND       PRES   REMARKS
TUCSON         RAIN      51  47  86 E5        30.23R
DAVIS-MONTHAN  CLOUDY    55  41  59 SW8       30.21R
RYAN FIELD       N/A     52  48  87 NE8       30.22
NOGALES        CLOUDY    48  45  89 CALM      30.25R
SIERRA VISTA   MOCLDY    46  37  71 SE6       30.27R
DOUGLAS        CLOUDY    48  29  47 CALM      30.28R
SAFFORD        MOCLDY    49  37  63 S5        30.26R
$$

AZZ020-021-025-026-031-271400-
SOUTHWEST ARIZONA

CITY           SKY/WX    TMP DP  RH WIND       PRES   REMARKS
YUMA           CLOUDY    57  52  83 NE13      30.17S
$$

CAZ031-033-041-043-047-048-061-271400-
SOUTHERN CALIFORNIA

CITY           SKY/WX    TMP DP  RH WIND       PRES   REMARKS
DOWNTOWN L.A.  MOCLDY    59  53  80 CALM      30.12S
L.A. AIRPORT   MOCLDY    57  54  89 NE6       30.13S
SAN DIEGO      MOCLDY    56  50  80 CALM      30.14R
BURBANK        CLOUDY    54  52  93 CALM      30.13S
ONTARIO        CLOUDY    57  53  86 CALM      30.14R
RIVERSIDE      CLOUDY    55  53  93 E3        30.14S FOG
PALM SPRINGS   CLOUDY    58  54  86 CALM      30.21R
EL CENTRO NAS  CLOUDY    55  54  96 W3        30.19R FOG
IMPERIAL       CLOUDY    54  53  97 CALM      30.19R FOG
BLYTHE         CLOUDY    55  54  96 N6        30.20R
NEEDLES        CLOUDY    55  51  86 CALM      30.22R
$$

NVZ020-UTZ003-271400-
SOUTHERN NEVADA-UTAH

CITY           SKY/WX    TMP DP  RH WIND       PRES   REMARKS
LAS VEGAS      CLOUDY    51  48  89 S3        30.18R
SALT LAKE CITY PTCLDY    30  28  92 SE3       30.17F FOG
$$

NMZ009-TXZ055-271400-
NEW MEXICO-WEST TEXAS

CITY           SKY/WX    TMP DP  RH WIND       PRES   REMARKS
ALBUQUERQUE    PTCLDY    35  26  69 N6        30.32S WCI  30
EL PASO        MOCLDY    47  34  60 N5        30.29R
$$


........................KEY........................
SKY/WX - SKY CONDITION/WEATHER
TMP    - TEMPERATURE IN FAHRENHEIT
DP     - DEW POINT IN FAHRENHEIT
RH     - RELATIVE HUMIDITY IN PERCENT
WIND   - DIRECTION AND SPEED IN MILES PER HOUR (MPH)
VRB    - VARIABLE WIND DIRECTION
PRES   - MEAN SEA LEVEL PRESSURE IN INCHES OF MERCURY
         F - FALLING PRESSURE   R - RISING PRESSURE
         S - STEADY PRESSURE
VSB    - VISIBILITY IN MILES
HX     - HEAT INDEX IN FAHRENHEIT
WCI    - WIND CHILL INDEX IN FAHRENHEIT
TC     - TEMPERATURE IN CELSIUS WHICH IS ALSO KNOWN AS
         TEMPERATURE IN CENTIGRADE
AFB    - AIR FORCE BASE
         LUKE AFB IS LUKE AIR FORCE BASE
         DAVIS-MONTHAN IS DAVIS-MONTHAN AIR FORCE BASE
NAS    - NAVAL AIR STATION
         EL CENTRO NAS IS EL CENTRO NAVAL AIR STATION
N/A    - NOT AVAILABLE



USA.gov is the U.S. government's official web portal to all federal, state and local government web resources and services.